| time (UTC) | temp F | wind direction | speed MPH | gust MPH | rain 1hr in | rain 24hr in | rain mn in | humidity % | barometer mb |
| 20260503001859 | 0 | 0.0 | 0.0 | 0.00 | 0.00 | 0.00 | |||
| 20260503000402 | 0 | 0.0 | 0.0 | 0.00 | 0.00 | 0.00 | |||
| 20260502234902 | 0 | 0.0 | 0.0 | 0.00 | 0.00 | 0.00 | |||
| 20260502233402 | 0 | 0.0 | 0.0 | 0.00 | 0.00 | 0.00 | |||
| 20260502231903 | 0 | 0.0 | 0.0 | 0.00 | 0.00 | 0.00 | |||
| 20260502230403 | 0 | 0.0 | 0.0 | 0.00 | 0.00 | 0.00 | |||
| 20260502224859 | 0 | 0.0 | 0.0 | 0.00 | 0.00 | 0.00 | |||
| 20260502223402 | 0 | 0.0 | 0.0 | 0.00 | 0.00 | 0.00 | |||
| 20260502221902 | 0 | 0.0 | 0.0 | 0.00 | 0.00 | 0.00 | |||
| 20260502220403 | 0 | 0.0 | 0.0 | 0.00 | 0.00 | 0.00 | |||
| 20260502214902 | 0 | 0.0 | 0.0 | 0.00 | 0.00 | 0.00 | |||
| 20260502213403 | 0 | 0.0 | 0.0 | 0.00 | 0.00 | 0.00 | |||
| 20260502211902 | 0 | 0.0 | 0.0 | 0.00 | 0.00 | 0.00 | |||
| 20260502210402 | 0 | 0.0 | 0.0 | 0.00 | 0.00 | 0.00 | |||
| 20260502204859 | 43 | 3.0 | 0.0 | 0.00 | 0.00 | 0.00 | 81 | 1021.0 | |
| 20260502203402 | 0 | 0.0 | 0.0 | 0.00 | 0.00 | 0.00 | |||
| 20260502201903 | 0 | 0.0 | 0.0 | 0.00 | 0.00 | 0.00 | |||
| 20260502200403 | 0 | 0.0 | 0.0 | 0.00 | 0.00 | 0.00 | |||
| 20260502194902 | 43 | 3.0 | 0.0 | 0.00 | 0.00 | 0.00 | 81 | 1021.0 | |
| 20260502193403 | 43 | 3.0 | 0.0 | 0.00 | 0.00 | 0.00 | 81 | 1021.0 | |
| 20260502191902 | 43 | 3.0 | 0.0 | 0.00 | 0.00 | 0.00 | 81 | 1021.0 | |
| 20260502190402 | 43 | 3.0 | 0.0 | 0.00 | 0.00 | 0.00 | 81 | 1021.0 | |
| 20260502184902 | 43 | 3.0 | 0.0 | 0.00 | 0.00 | 0.00 | 81 | 1021.0 | |
| 20260502183402 | 43 | 3.0 | 0.0 | 0.00 | 0.00 | 0.00 | 81 | 1021.0 | |
| 20260502181903 | 43 | 3.0 | 0.0 | 0.00 | 0.00 | 0.00 | 81 | 1021.0 | |
| 20260502180402 | 43 | 3.0 | 0.0 | 0.00 | 0.00 | 0.00 | 81 | 1021.0 | |
| 20260502170402 | 50 | 3.0 | 0.0 | 0.00 | 0.00 | 0.00 | 62 | 1021.0 | |
| 20260502163402 | 50 | 100 | 5.0 | 0.0 | 0.00 | 0.00 | 0.00 | 62 | 1021.0 |
| 20260502161902 | 50 | 100 | 5.0 | 0.0 | 0.00 | 0.00 | 0.00 | 62 | 1021.0 |
| 20260502160403 | 50 | 100 | 5.0 | 0.0 | 0.00 | 0.00 | 0.00 | 62 | 1021.0 |
| 20260502151902 | 52 | 60 | 9.0 | 0.0 | 0.00 | 0.00 | 0.00 | 58 | 1021.0 |
| 20260502150402 | 52 | 60 | 9.0 | 0.0 | 0.00 | 0.00 | 0.00 | 58 | 1021.0 |
| 20260502130403 | 55 | 60 | 11.0 | 0.0 | 0.00 | 0.00 | 0.00 | 41 | 1021.0 |
| 20260502123402 | 55 | 80 | 11.0 | 0.0 | 0.00 | 0.00 | 0.00 | 38 | 1022.0 |
| 20260502121902 | 55 | 80 | 11.0 | 0.0 | 0.00 | 0.00 | 0.00 | 38 | 1022.0 |
| 20260502120410 | 55 | 80 | 11.0 | 0.0 | 0.00 | 0.00 | 0.00 | 38 | 1022.0 |
| 20260502114856 | 55 | 60 | 14.0 | 0.0 | 0.00 | 0.00 | 0.00 | 36 | 1022.0 |
| 20260502113402 | 55 | 60 | 14.0 | 0.0 | 0.00 | 0.00 | 0.00 | 36 | 1022.0 |
| 20260502111902 | 55 | 60 | 14.0 | 0.0 | 0.00 | 0.00 | 0.00 | 36 | 1022.0 |
| 20260502110402 | 0 | 0.0 | 0.0 | 0.00 | 0.00 | 0.00 | |||
| 20260502104903 | 55 | 40 | 11.0 | 0.0 | 0.00 | 0.00 | 0.00 | 41 | 1022.0 |
| 20260502103403 | 55 | 40 | 11.0 | 0.0 | 0.00 | 0.00 | 0.00 | 41 | 1022.0 |
| 20260502101859 | 55 | 40 | 11.0 | 0.0 | 0.00 | 0.00 | 0.00 | 41 | 1022.0 |
| 20260502100402 | 55 | 40 | 11.0 | 0.0 | 0.00 | 0.00 | 0.00 | 41 | 1022.0 |
| 20260502090402 | 0 | 0.0 | 0.0 | 0.00 | 0.00 | 0.00 | |||
| 20260502070404 | 54 | 350 | 7.0 | 0.0 | 0.00 | 0.00 | 0.00 | 47 | 1022.0 |
| 20260502064902 | 50 | 300 | 7.0 | 0.0 | 0.00 | 0.00 | 0.00 | 58 | 1022.0 |
| 20260502063402 | 50 | 300 | 7.0 | 0.0 | 0.00 | 0.00 | 0.00 | 58 | 1022.0 |
| 20260502061903 | 50 | 300 | 7.0 | 0.0 | 0.00 | 0.00 | 0.00 | 58 | 1022.0 |
| 20260502060403 | 0 | 0.0 | 0.0 | 0.00 | 0.00 | 0.00 | |||
| 20260502054902 | 41 | 300 | 7.0 | 0.0 | 0.00 | 0.00 | 0.00 | 70 | 1022.0 |
| 20260502053403 | 41 | 300 | 7.0 | 0.0 | 0.00 | 0.00 | 0.00 | 70 | 1022.0 |
| 20260502051902 | 41 | 300 | 7.0 | 0.0 | 0.00 | 0.00 | 0.00 | 70 | 1022.0 |
| 20260502050402 | 41 | 300 | 7.0 | 0.0 | 0.00 | 0.00 | 0.00 | 70 | 1022.0 |
| 20260502044902 | 39 | 300 | 7.0 | 0.0 | 0.00 | 0.00 | 0.00 | 70 | 1022.0 |
| 20260502043402 | 39 | 300 | 7.0 | 0.0 | 0.00 | 0.00 | 0.00 | 70 | 1022.0 |
| 20260502041903 | 39 | 300 | 7.0 | 0.0 | 0.00 | 0.00 | 0.00 | 70 | 1022.0 |
| 20260502040402 | 39 | 300 | 7.0 | 0.0 | 0.00 | 0.00 | 0.00 | 70 | 1022.0 |
| 20260502035026 | 0 | 0.0 | 0.0 | 0.00 | 0.00 | 0.00 | |||
| 20260502033402 | 37 | 300 | 7.0 | 0.0 | 0.00 | 0.00 | 0.00 | 81 | 1022.0 |
| 20260502031902 | 37 | 300 | 7.0 | 0.0 | 0.00 | 0.00 | 0.00 | 81 | 1022.0 |
| 20260502030402 | 37 | 300 | 7.0 | 0.0 | 0.00 | 0.00 | 0.00 | 81 | 1022.0 |
| 20260502024903 | 37 | 300 | 7.0 | 0.0 | 0.00 | 0.00 | 0.00 | 87 | 1023.0 |
| 20260502023402 | 37 | 300 | 7.0 | 0.0 | 0.00 | 0.00 | 0.00 | 87 | 1023.0 |
| 20260502021903 | 37 | 300 | 7.0 | 0.0 | 0.00 | 0.00 | 0.00 | 87 | 1023.0 |
| 20260502020403 | 37 | 300 | 7.0 | 0.0 | 0.00 | 0.00 | 0.00 | 87 | 1023.0 |
| 20260502014903 | 37 | 300 | 7.0 | 0.0 | 0.00 | 0.00 | 0.00 | 87 | 1023.0 |
| 20260502013402 | 39 | 300 | 7.0 | 0.0 | 0.00 | 0.00 | 0.00 | 81 | 1023.0 |
| 20260502011903 | 39 | 300 | 7.0 | 0.0 | 0.00 | 0.00 | 0.00 | 81 | 1023.0 |
| 20260502010402 | 39 | 300 | 7.0 | 0.0 | 0.00 | 0.00 | 0.00 | 81 | 1023.0 |
| 20260502004859 | 39 | 300 | 7.0 | 0.0 | 0.00 | 0.00 | 0.00 | 81 | 1023.0 |
| 20260502003402 | 39 | 300 | 7.0 | 0.0 | 0.00 | 0.00 | 0.00 | 87 | 1023.0 |